Location: *
(2.7500°S, 66.6833°W)
Time: 03:13:18
(UTC+00:00)

Meteor 2-15 - Pass Details

Date: 24 May 2024
Orbit: 935 x 956 km, 82.5° (Epoch: 23 June)

Event Time Altitude Azimuth Distance (km) Brightness Sun altitude
Rises 22:40:25 0° 3° (N) 3,576 7.7 -4.9°
Reaches altitude 10° 22:42:54 10° 6° (N) 2,637 7.0 -5.5°
Maximum altitude 22:48:52 65° 87° (E) 1,027 4.4 -6.9°
Drops below altitude 10° 22:54:52 10° 168° (SSE) 2,661 6.5 -8.3°
Sets 22:57:23 0° 170° (S) 3,611 7.2 -8.8°
